Preston, Minnesota, United States (55965)
Lat: 43.67N, Lon: 92.08W
Wx Zone: MNZ095
Local Info
Past Weather Observations for Today

NOTE: This archive is for the closest National Weather Service station to Preston. Information may differ from the station used for current weather conditions.

Click here for Long-term Archive

Time Weather Temperature Dewpoint Humidity Pressure Winds Precip Visibility
15:55
Overcast
30°F / -1°C 21°F / -6°C 69% 30.06 in
(1018 mb)
NW 13.8 mph
(NW 22 kph)
- 10SM
15:35
Overcast
30°F / -1°C 19°F / -7°C 64% 30.06 in
(1018 mb)
NW 12.7 mph
(NW 20 kph)
- 10SM
15:15
Overcast
30°F / -1°C 21°F / -6°C 69% 30.06 in
(1018 mb)
NW 13.8 mph
(NW 22 kph)
- 10SM
14:55
Overcast
32°F / 0°C 19°F / -7°C 60% 30.06 in
(1018 mb)
NW 15 mph
(NW 24 kph)
- 10SM
14:34
Overcast
30°F / -1°C 21°F / -6°C 69% 30.06 in
(1018 mb)
NW 18.4 mph
(NW 30 kph)
- 10SM
14:15
Overcast
30°F / -1°C 21°F / -6°C 69% 30.06 in
(1018 mb)
NW 15 mph
(NW 24 kph)
- 10SM
13:55
Overcast
30°F / -1°C 21°F / -6°C 69% 30.06 in
(1018 mb)
NW 16.1 mph
(NW 26 kph)
- 10SM
13:35
Overcast
30°F / -1°C 19°F / -7°C 64% 30.06 in
(1018 mb)
NW 12.7 mph
(NW 20 kph)
- 10SM
13:14
Overcast
30°F / -1°C 21°F / -6°C 69% 30.06 in
(1018 mb)
NW 12.7 mph
(NW 20 kph)
- 10SM
12:55
Fair
30°F / -1°C 21°F / -6°C 69% 30.09 in
(1019 mb)
NW 17.3 mph
(NW 28 kph)
- 10SM
12:35
Overcast
30°F / -1°C 21°F / -6°C 69% 30.06 in
(1018 mb)
NNW 12.7 mph
(NNW 20 kph)
- 10SM
12:15
Overcast
30°F / -1°C 19°F / -7°C 64% 30.09 in
(1019 mb)
N 11.5 mph
(N 19 kph)
- 10SM
11:55
Overcast
28°F / -2°C 21°F / -6°C 74% 30.09 in
(1019 mb)
NW 11.5 mph
(NW 19 kph)
- 10SM
11:34
Overcast
28°F / -2°C 21°F / -6°C 74% 30.09 in
(1019 mb)
NNW 13.8 mph
(NNW 22 kph)
- 10SM
11:15
Overcast
28°F / -2°C 19°F / -7°C 69% 30.09 in
(1019 mb)
NW 13.8 mph
(NW 22 kph)
- 10SM
10:55
Overcast
28°F / -2°C 19°F / -7°C 69% 30.09 in
(1019 mb)
NNW 13.8 mph
(NNW 22 kph)
- 10SM
10:34
Overcast
28°F / -2°C 21°F / -6°C 74% 30.09 in
(1019 mb)
NW 13.8 mph
(NW 22 kph)
- 10SM
10:15
Overcast
28°F / -2°C 21°F / -6°C 74% 30.09 in
(1019 mb)
NW 15 mph
(NW 24 kph)
- 10SM
09:55
Overcast
28°F / -2°C 21°F / -6°C 74% 30.09 in
(1019 mb)
NW 16.1 mph
(NW 26 kph)
- 10SM
09:35
Overcast
28°F / -2°C 21°F / -6°C 74% 30.06 in
(1018 mb)
NW 12.7 mph
(NW 20 kph)
- 10SM
09:15
Overcast
28°F / -2°C 21°F / -6°C 74% 30.06 in
(1018 mb)
NW 13.8 mph
(NW 22 kph)
- 10SM
08:54
Mostly Cloudy
27°F / -3°C 21°F / -6°C 80% 30.06 in
(1018 mb)
NW 15 mph
(NW 24 kph)
- 10SM
08:35
Mostly Cloudy
27°F / -3°C 21°F / -6°C 80% 30.06 in
(1018 mb)
NW 13.8 mph
(NW 22 kph)
- 10SM
08:15
Mostly Cloudy
27°F / -3°C 19°F / -7°C 74% 30.06 in
(1018 mb)
NW 16.1 mph
(NW 26 kph)
- 10SM
07:55
Partly Cloudy
27°F / -3°C 19°F / -7°C 74% 30.06 in
(1018 mb)
NW 13.8 mph
(NW 22 kph)
- 10SM
07:35
Partly Cloudy
25°F / -4°C 19°F / -7°C 80% 30.06 in
(1018 mb)
NW 15 mph
(NW 24 kph)
- 10SM
07:14
Partly Cloudy
23°F / -5°C 19°F / -7°C 86% 30.06 in
(1018 mb)
NW 12.7 mph
(NW 20 kph)
- 10SM
06:55
Mostly Cloudy
23°F / -5°C 19°F / -7°C 86% 30.06 in
(1018 mb)
NW 12.7 mph
(NW 20 kph)
- 10SM
06:35
Mostly Cloudy
23°F / -5°C 19°F / -7°C 86% 30.04 in
(1017 mb)
NW 10.4 mph
(NW 17 kph)
- 10SM
06:14
Overcast
25°F / -4°C 19°F / -7°C 80% 30.04 in
(1017 mb)
NW 11.5 mph
(NW 19 kph)
- 10SM
05:55
Overcast
25°F / -4°C 19°F / -7°C 80% 30.04 in
(1017 mb)
NW 10.4 mph
(NW 17 kph)
- 10SM
05:35
Overcast
25°F / -4°C 19°F / -7°C 80% 30.04 in
(1017 mb)
NW 9.2 mph
(NW 15 kph)
- 10SM
05:14
Partly Cloudy
25°F / -4°C 19°F / -7°C 80% 30.04 in
(1017 mb)
NW 11.5 mph
(NW 19 kph)
- 10SM
04:55
Clear
25°F / -4°C 19°F / -7°C 80% 30.04 in
(1017 mb)
NW 13.8 mph
(NW 22 kph)
- 10SM
04:35
Clear
27°F / -3°C 19°F / -7°C 74% 30.04 in
(1017 mb)
NW 11.5 mph
(NW 19 kph)
- 10SM
04:14
Clear
27°F / -3°C 19°F / -7°C 74% 30.04 in
(1017 mb)
NW 11.5 mph
(NW 19 kph)
- 10SM
03:55
Clear
27°F / -3°C 19°F / -7°C 74% 30.04 in
(1017 mb)
NW 11.5 mph
(NW 19 kph)
- 10SM
03:35
Clear
27°F / -3°C 19°F / -7°C 74% 30.01 in
(1016 mb)
NW 13.8 mph
(NW 22 kph)
- 10SM
03:14
Clear
27°F / -3°C 21°F / -6°C 80% 30.01 in
(1016 mb)
NW 11.5 mph
(NW 19 kph)
- 10SM
02:55
Clear
27°F / -3°C 21°F / -6°C 80% 30.04 in
(1017 mb)
NW 13.8 mph
(NW 22 kph)
- 10SM
02:35
Clear
28°F / -2°C 21°F / -6°C 74% 30.04 in
(1017 mb)
NW 15 mph
(NW 24 kph)
- 10SM
02:15
Clear
28°F / -2°C 21°F / -6°C 74% 30.04 in
(1017 mb)
NW 16.1 mph
(NW 26 kph)
- 10SM
01:55
Clear
27°F / -3°C 21°F / -6°C 80% 30.04 in
(1017 mb)
NW 16.1 mph
(NW 26 kph)
- 10SM
01:35
Clear
28°F / -2°C 23°F / -5°C 80% 30.06 in
(1018 mb)
NW 10.4 mph
(NW 17 kph)
- 10SM
01:15
Clear
28°F / -2°C 23°F / -5°C 80% 30.06 in
(1018 mb)
WNW 9.2 mph
(WNW 15 kph)
- 10SM
00:54
Clear
28°F / -2°C 23°F / -5°C 80% 30.06 in
(1018 mb)
NW 11.5 mph
(NW 19 kph)
- 10SM
00:35
Clear
28°F / -2°C 23°F / -5°C 80% 30.06 in
(1018 mb)
NW 11.5 mph
(NW 19 kph)
- 10SM
00:15
Clear
28°F / -2°C 23°F / -5°C 80% 30.06 in
(1018 mb)
NW 11.5 mph
(NW 19 kph)
- 10SM
Time Weather Temperature Dewpoint Humidity Pressure Winds Precip Visibility


Weather for websites

WeatherForYou.com, LLC is not responsible for any damages or problems caused by this service. Current weather conditions are obtained from the closest station including government and personal stations which may have varying degrees of accuracy. Weather forecasts are derived from the NOAA NDFD. Like all things, this site belongs to Jesus Christ... He just trusts me to maintain it. If you have any questions or comments email webmaster@weatherforyou.com

Copyright © 2015, WeatherForYou.com LLC. All rights reserved.